COSMOS 252 DEB

Satellite information

Favourite Embed

Satellite Type and Status

DEBRISIN ORBIT

Key statistics

Satellite COSMOS 252 DEB at a glance.

Uptime

20862

Days in orbit

Revolutions

≈ 13.8

Per day

Orbit

LEO

Low Earth Orbit

Inclination

62.2

Latest

Satellite identification and parameters

Extended collection of information and parameters for COSMOS 252 DEB.

Object identification

Identified? True

Debris? True

Object name: COSMOS 252 DEB

International designator: 1968-097EP

Object number (NORAD): 18556

Object ID (CCSDS): 18556

Country: COMMONWEALTH OF INDEPENDENT STATES (CIS)

Current information (Y/N): Y

RCS size: SMALL

Orbital parameters

Period: 104.401 minutes

Inclination: 62.19 deg

SMA: 7344.501 km

Apoapsis: 1272.199 km

Periapsis: 660.533 km

RAAN: 153.0043 deg

Eccentricy: 0.04164115

Argument of periapsis: 206.76 deg

Mean anomaly: 151.1401 deg

Mean motion: 13.79301864 rev/day

Mean motion (dot): 0.00010437 rev/day2

B* drag term: 0.0053324165 1/REarth

Two-line elements (TLE)

Creation date: Dec. 3, 2025, 2:22 a.m.

Reference frame: TEME

Reference center: EARTH

Epoch: Dec. 2, 2025, 12:15 p.m. UTC

TLE line 0: 0 COSMOS 252 DEB

TLE line 1: 1 18556U 68097EP 25336.51062492 .00010437 00000-0 53324-2 0 9997

TLE line 2: 2 18556 62.1900 153.0043 0416412 206.7600 151.1401 13.79301864470657

Live tracking on map

Real-time ground track for satellite COSMOS 252 DEB.

In-orbit conjunctions

A list of the most updated potential collisions computed for object COSMOS 252 DEB.

Target Orbit TCA Probability of collision Miss distance Type
FENGYUN 1C DEB SSO 2025-07-17 21:57:24 0.0001227473 261.0 (m) DEBRIS

Associated space launch

The I2P satellites were the first soviet coorbital ASAT system.

COSMOS 252 DEB was lifted into orbit during the mission ‘Tsiklon-2A | I2P 2’, on board a Tsiklon-2A space rocket.

The launch took place on Nov. 1, 1968, 12:27 a.m. from 90/20.

For more information about the launch, click the button.

Launch to space Tsiklon-2A | I2P 2
Tsiklon-2A | I2P 2

Agency: N/A

Status: Launch Successful

Launch date: Nov. 1, 1968, 12:27 a.m. UTC

Rocket: Tsiklon-2A

Launch pad: 90/20

Location: Baikonur Cosmodrome, Republic of Kazakhstan

...

Latest news about this satellite

There are no fresh news available about this satellite. Check back as we update our databases every day.


Newsletter sign-up

Weekly statistics, charts and insights to help you stay on top of the space industry.